Theta_e
276 274 271 269 271 272 273 272 270 271 275 274 274 275 277 279 277 276 276 277 277 279 281 282 283 282 282 283 282 282 283 284 284 283 283 283 282 284 285 286 287 287 287 288
274 270 272 275 275 274 273 271 268 272 275 273 272 273 277 278 278 278 278 276 277 277 278 280 280 280 281 281 281 282 283 283 283 283 283 283 283 283 284 285 286 286 287 287
271 272 276 276 273 274 270 270 269 271 273 273 270 271 273 277 279 279 279 278 277 277 278 278 278 278 279 279 279 281 282 282 282 283 283 283 283 283 283 283 284 285 286 286
271 274 275 273 273 273 272 272 273 272 271 269 271 267 271 274 277 278 279 276 276 277 278 279 279 278 278 279 280 281 281 281 282 282 281 280 279 279 281 282 283 284 285 285
270 271 272 272 273 274 272 274 273 273 270 269 269 267 269 274 274 277 278 276 276 277 278 278 278 279 279 279 279 279 280 280 280 280 280 279 278 280 280 281 281 282 283 284
271 274 272 272 274 274 275 273 273 272 270 262 267 268 268 271 275 276 277 277 276 277 277 278 279 280 279 279 279 279 279 279 279 279 278 278 277 277 277 278 278 279 280 281
272 271 272 275 271 273 272 271 265 263 260 264 268 266 270 273 276 278 279 276 276 277 276 277 278 278 278 279 279 279 278 277 278 277 277 277 276 277 276 277 277 277 277 277
267 266 271 273 271 270 271 270 265 259 264 267 270 267 271 274 277 277 278 277 276 276 277 277 278 278 278 279 278 278 278 277 277 277 276 276 276 276 276 276 276 276 276 276
265 268 271 274 273 272 269 266 270 261 261 261 267 269 274 276 274 274 275 276 275 276 276 277 278 278 278 278 278 278 277 277 277 277 276 275 275 276 275 275 276 276 276 277
271 264 272 272 272 271 270 272 265 263 257 257 266 265 269 274 274 275 275 275 275 276 276 277 278 278 278 278 278 278 278 277 277 277 276 276 275 276 275 275 275 276 276 277
264 268 268 271 266 268 267 266 266 267 265 261 260 265 268 273 277 276 276 276 276 277 277 277 277 278 278 278 278 278 277 277 277 277 276 276 276 276 276 276 275 275 276 276
270 266 262 265 269 270 267 266 266 263 262 262 264 264 274 274 275 277 277 278 277 278 277 277 277 277 277 277 277 277 278 277 277 276 276 276 276 276 275 275 275 275 274 275
268 264 258 265 266 268 262 269 271 267 266 261 260 266 274 274 272 275 276 276 277 277 276 276 276 275 276 276 277 277 277 277 277 276 275 275 275 275 274 274 274 275 273 272
274 259 263 264 265 263 260 261 269 263 258 263 266 267 270 271 272 272 273 275 275 275 276 276 275 275 275 276 276 276 277 277 277 276 275 274 274 274 273 274 274 274 273 272
268 259 258 262 266 264 262 260 264 264 267 264 272 270 269 270 271 273 274 273 275 276 276 275 275 275 275 275 276 276 276 277 276 275 274 274 275 274 273 273 273 273 273 273
264 258 257 258 268 268 263 265 264 268 269 269 270 269 273 269 269 272 274 275 275 275 275 276 276 277 277 277 276 277 276 276 276 275 274 274 274 274 273 273 272 272 272 271
263 259 256 257 265 265 261 264 266 267 261 269 266 272 272 270 273 273 274 275 275 276 276 276 276 276 277 276 278 274 275 273 273 274 274 274 274 273 272 272 271 271 270 270
259 257 254 253 256 255 268 269 266 269 271 269 269 269 270 271 271 273 273 274 276 277 277 277 277 276 276 275 275 276 277 276 276 275 274 274 273 272 271 270 270 269 269 268
268 262 255 255 249 262 270 267 264 264 267 271 271 273 269 268 268 270 275 275 276 276 276 276 276 274 274 275 276 276 275 275 275 274 274 273 272 270 269 268 266 265 266 262
270 265 262 252 254 253 264 267 267 266 263 270 271 271 270 270 264 267 270 274 276 276 276 276 276 276 275 276 276 275 275 273 271 273 273 271 269 269 267 266 266 267 263 264
262 260 261 251 254 260 267 269 269 263 267 268 270 270 269 269 270 271 272 273 276 277 277 277 276 275 276 276 275 274 273 271 273 270 269 268 267 267 266 266 266 264 261 261
262 259 258 257 253 256 270 270 268 272 269 271 270 271 272 272 271 272 273 274 275 275 276 276 275 275 276 275 275 273 271 272 267 266 266 265 265 267 267 265 264 262 260 259
261 265 261 263 263 266 272 273 275 272 270 271 271 273 274 274 273 274 273 274 273 274 276 276 275 275 272 270 270 272 273 267 264 263 262 260 262 265 265 263 260 259 259 258
264 266 265 266 268 270 272 275 274 273 273 275 275 274 273 273 274 274 274 274 274 274 273 274 272 272 272 272 271 270 267 264 262 260 259 259 259 259 260 262 263 261 258 257
268 268 264 265 270 272 271 273 275 276 275 275 275 275 273 273 273 273 273 273 273 273 272 270 272 272 272 272 269 264 264 262 261 259 258 257 259 259 260 261 261 262 262 263
270 266 266 268 269 270 272 269 270 270 268 268 269 269 270 270 269 268 268 269 270 269 269 269 269 269 270 270 267 264 262 262 261 261 261 260 260 259 260 259 260 265 267 269
Wind_Speed
5 6 4 3 0 2 4 5 4 1 1 1 3 5 8 7 5 7 6 6 6 6 4 4 4 5 6 6 7 8 9 10 9 9 9 5 9 8 8 8 12 13 13 14
7 3 2 3 3 4 4 5 2 2 1 2 0 6 8 8 7 8 9 8 8 5 5 5 5 3 3 3 5 5 6 6 7 6 6 3 5 4 5 8 10 12 13 13
5 2 2 3 5 5 4 3 3 1 1 2 3 7 6 7 5 7 7 7 6 9 8 6 5 5 4 2 1 3 4 5 5 6 5 4 4 4 6 10 9 11 12 12
6 2 2 4 3 2 2 0 2 2 3 4 4 6 6 7 13 9 10 9 9 9 7 6 4 3 2 1 2 3 4 5 6 6 5 5 4 5 5 6 8 9 12 12
1 2 2 3 1 1 2 2 3 1 2 1 3 1 6 7 11 16 12 10 9 9 8 7 6 4 3 2 2 2 4 4 5 5 5 4 4 3 4 6 9 9 9 12
3 0 2 2 2 3 5 4 4 3 2 3 3 4 7 8 12 7 7 9 10 9 7 6 6 5 4 2 0 1 2 3 3 4 5 5 5 5 5 7 7 8 7 8
1 2 1 1 5 2 1 4 4 6 5 6 1 2 12 6 6 10 18 12 10 9 8 7 7 6 5 5 4 3 2 4 3 3 4 5 5 5 5 6 6 8 7 8
7 4 4 1 1 6 4 6 6 8 4 3 4 8 10 6 5 4 8 13 9 8 7 8 8 8 7 7 7 6 5 5 4 3 3 3 4 3 3 4 5 5 5 7
6 1 0 3 1 2 4 4 4 8 2 4 4 8 8 3 2 5 9 9 10 9 8 9 8 8 8 7 8 8 7 6 5 5 3 3 3 4 4 5 4 4 5 8
4 5 2 1 1 1 4 3 4 3 2 4 5 6 9 6 8 6 8 10 9 8 8 8 8 8 7 7 7 7 7 7 6 5 4 3 4 4 4 4 5 6 6 8
3 5 1 3 5 7 1 1 2 2 5 6 2 9 7 7 12 15 11 9 9 9 9 8 8 7 8 6 7 7 7 7 7 6 4 4 4 4 4 4 4 5 7 8
4 5 4 6 1 2 4 6 5 7 6 3 2 12 3 4 5 8 9 9 8 7 8 8 8 7 6 7 7 8 7 7 7 6 5 5 4 4 4 4 5 4 6 7
5 1 3 6 5 4 3 5 4 4 3 7 7 9 1 1 1 5 8 7 6 7 8 7 6 7 7 7 7 7 7 8 7 6 6 5 5 4 5 4 4 4 5 6
4 3 7 8 6 5 3 3 6 6 4 4 12 4 4 5 5 4 6 7 5 7 7 7 7 7 7 7 7 7 8 7 7 6 6 6 6 5 5 4 4 4 4 5
5 5 2 4 4 3 5 5 8 11 10 10 11 14 8 8 10 10 7 3 4 7 7 8 8 7 7 6 6 6 7 7 6 7 7 8 6 5 4 4 4 4 5 6
2 2 3 4 1 6 7 9 9 17 19 17 19 29 8 5 3 6 9 8 7 7 8 8 8 8 7 7 7 6 6 8 5 7 8 6 6 5 5 4 3 4 5 6
5 7 4 7 4 5 11 15 23 7 5 15 14 21 6 3 7 7 8 6 7 7 8 8 8 8 7 7 6 6 7 2 4 6 6 6 6 6 5 3 3 4 5 7
6 5 3 4 4 3 7 3 5 18 12 16 12 8 6 6 3 4 3 6 7 7 7 7 7 7 8 5 6 6 6 6 6 6 7 6 6 6 4 3 3 3 5 5
3 5 2 4 4 10 10 5 8 10 11 17 23 22 6 2 3 7 6 7 8 7 7 7 7 5 5 7 8 6 6 6 6 7 7 7 7 5 4 4 2 3 4 3
4 4 5 3 5 9 6 3 3 4 9 8 10 9 9 7 2 6 4 5 7 8 6 7 7 5 6 9 7 6 7 6 6 7 8 6 6 5 4 3 3 2 2 5
4 2 10 3 4 13 10 5 4 7 11 2 6 6 8 6 7 6 3 3 5 5 7 7 6 7 10 8 6 7 7 7 7 4 4 5 4 4 4 3 3 2 3 4
11 10 6 4 2 14 9 5 8 7 3 3 4 6 8 8 3 6 6 6 8 9 8 8 7 8 9 7 6 8 8 7 3 4 5 4 4 3 2 3 3 3 3 4
5 11 11 15 15 6 11 6 11 3 2 3 4 6 7 7 7 7 6 7 7 8 7 6 7 10 8 7 6 8 9 5 5 5 5 4 4 3 3 3 3 2 3 3
5 5 4 3 10 15 11 12 3 4 7 4 4 3 4 6 7 7 6 6 6 6 6 5 6 8 11 7 8 12 4 5 6 6 5 4 3 3 3 3 3 3 3 3
6 10 7 8 8 2 7 10 12 9 6 5 6 3 3 4 3 2 4 5 5 6 5 3 7 11 14 8 9 5 6 7 5 5 4 4 3 3 3 4 3 4 5 6
6 9 7 10 6 4 0 6 8 7 7 9 8 7 8 9 7 8 7 7 8 9 10 10 10 11 13 11 8 5 5 6 6 5 4 4 3 3 3 2 4 9 10 12
Wind_Direction
13 76 164 148 289 310 138 120 130 88 269 138 204 175 210 201 158 171 179 162 157 148 154 105 67 52 31 23 13 4 2 1 7 5 3 8 7 2 4 4 3 3 2 3
27 97 227 337 24 83 79 115 93 29 175 97 194 245 219 214 204 188 184 185 183 177 167 151 140 121 67 25 13 15 7 359 10 3 358 350 330 344 357 355 359 1 2 3
122 117 355 82 36 87 27 124 179 131 21 342 40 284 194 221 212 200 199 186 181 181 178 178 165 154 159 122 60 44 16 6 15 1 357 353 337 330 1 2 358 357 358 359
86 315 54 76 66 39 159 328 116 149 138 204 162 261 230 202 205 205 199 183 189 185 174 170 166 139 124 104 69 47 28 19 24 2 10 13 6 355 346 339 340 349 355 357
194 120 122 93 90 3 180 162 150 128 110 48 201 106 254 153 212 213 206 193 198 194 176 176 179 161 162 106 51 22 15 18 13 16 18 9 3 330 325 338 342 349 350 352
119 95 66 120 89 44 140 86 46 53 54 17 233 156 268 190 209 185 187 190 188 187 186 180 191 174 199 198 244 332 359 340 359 12 8 12 1 339 345 345 345 344 342 343
55 13 30 133 94 38 77 85 7 353 7 223 149 109 246 246 228 188 189 182 184 183 178 186 201 214 220 219 233 257 268 307 318 346 354 356 350 344 339 340 338 337 337 339
148 296 171 103 160 170 175 154 162 203 206 257 336 231 252 233 272 220 163 162 164 180 187 201 214 216 221 222 214 221 231 253 261 283 306 330 337 332 326 327 327 325 323 323
120 110 6 59 64 108 218 204 175 102 43 41 230 290 309 176 97 132 143 148 182 192 198 206 221 218 218 221 224 220 224 236 242 247 266 300 315 324 318 319 305 301 308 324
195 79 17 122 88 61 146 193 84 360 135 263 279 279 247 208 212 184 177 186 196 207 215 218 226 226 227 222 226 226 230 231 235 226 230 252 285 297 301 314 320 321 316 321
128 101 217 47 206 179 105 226 38 124 150 176 254 260 217 217 197 196 198 197 199 211 218 222 226 233 231 232 228 234 237 233 237 232 227 243 271 286 294 302 306 308 317 323
198 126 163 218 259 345 175 209 160 130 235 227 153 269 283 273 212 184 197 198 212 216 223 225 230 242 234 236 238 236 241 233 229 229 222 232 250 268 280 287 296 292 303 319
205 287 43 344 349 358 210 201 180 122 93 205 142 257 5 328 23 202 183 190 200 219 233 241 254 243 236 241 246 248 251 240 232 224 225 238 248 257 266 279 285 295 298 306
101 93 169 188 198 130 203 250 187 137 135 183 230 292 245 230 211 183 173 156 205 229 240 248 242 234 234 235 243 257 265 246 233 216 221 234 239 243 252 272 283 294 291 293
114 188 152 261 234 172 205 191 199 203 204 189 262 228 222 214 208 206 202 242 230 247 245 235 231 232 233 238 251 256 262 266 224 220 220 230 234 234 240 259 268 289 299 310
354 196 113 304 263 219 258 220 219 227 234 253 264 272 226 247 190 182 223 264 223 227 247 249 238 233 234 234 243 258 268 273 208 221 230 221 228 226 226 243 266 291 303 313
142 135 100 261 335 314 290 214 209 204 202 216 231 244 165 204 205 200 218 212 226 240 244 247 241 238 238 240 239 254 263 241 211 229 234 224 225 225 224 238 263 289 307 311
128 93 68 220 11 284 251 187 167 213 239 219 258 239 188 202 219 185 212 221 243 245 257 253 248 248 242 242 261 258 259 257 249 246 231 220 216 215 218 226 250 285 302 305
145 122 102 151 206 303 294 165 157 162 270 221 228 246 178 159 42 288 238 207 227 235 250 248 251 244 255 260 261 250 260 249 249 246 238 222 196 197 206 235 246 259 276 272
125 71 137 108 175 223 241 251 147 119 293 237 199 228 149 136 142 251 235 201 211 232 240 251 254 253 251 258 249 240 248 245 250 248 242 196 175 187 196 218 246 243 247 286
148 229 211 179 240 281 242 209 149 94 242 211 184 154 149 179 198 208 183 229 222 238 262 268 266 253 259 259 239 234 238 240 244 239 186 158 160 176 191 217 205 240 259 280
173 158 186 130 164 277 167 97 187 221 299 173 177 171 176 207 208 222 225 241 251 255 265 260 259 262 265 257 226 240 237 239 211 168 156 156 162 190 204 213 236 246 250 265
244 188 180 186 207 225 205 203 225 117 175 240 196 196 183 193 222 239 245 255 254 258 267 262 258 269 265 256 222 239 244 173 163 154 168 175 184 204 218 226 235 249 242 257
240 161 203 125 231 224 225 251 271 211 218 231 240 230 205 221 236 246 248 247 248 255 259 260 267 274 276 266 238 229 185 163 156 177 184 183 194 224 237 245 227 215 238 249
169 142 192 265 284 253 243 226 247 268 253 291 317 306 335 251 303 342 331 328 323 313 317 312 301 292 285 278 258 217 183 156 173 181 184 195 201 231 247 239 238 242 226 240
185 187 190 243 212 203 347 41 7 57 43 28 13 9 21 29 9 355 330 337 324 321 320 306 294 288 287 282 252 197 177 171 169 184 196 205 202 213 234 230 284 276 274 284